sat.trackr.live / text

‹ back to catalog

STARLINK-4739

NORAD 53792 · 2022-111V

PAYLOAD ACTIVE UNKNOWN

§ Identity

Operator
Country
US
Launch date
2022-09-11
Launch site
AFETR
Launch vehicle
Mass (kg)
RCS (m²)

Purposes: comms

External: N2YO · Heavens-Above · Gunter

§ Orbital elements

Epoch: 2026-09-20T06:39:17.227008Z

Period
94.01 min
Inclination
53.1606°
Eccentricity
0.0000873
Mean motion
15.31719096 rev/d
Perigee alt
470.1 km
Apogee alt
471.3 km
Semi-major
6,848.8 km
B*
-8.3334e-5
RAAN
107.2008°
Arg perigee
100.0912°
Mean anomaly
260.0188°
Rev number
22,324

§ Raw data

STARLINK-47391 53792U 22111V   26263.27728272 -.00002951  00000+0 -83334-4 0  99922 53792  53.1606 107.2008 0000873 100.0912 260.0188 15.31719096223248

JSON: /api/v1/satellites/53792 · /tle

For live sub-satellite position, see the globe view (requires WebGL).

§ Visibility from observer

Set your observer location to see the next 7 days of passes ≥ 10°. The values pass through the URL so the page stays shareable.

No JS? Fill the form by hand. The geolocation button needs JavaScript.